Tracking 28091 objects as of 30-Sep-2023
HD Live streaming from Space Station
objects crossing your sky now

STARLINK-30238

Track STARLINK-30238 now!
10-day predictions
STARLINK-30238 is classified as:


NORAD ID: 57296
Int'l Code: 2023-096G
Perigee: 565.3 km
Apogee: 567.0 km
Inclination: 43.0 °
Period: 95.8 minutes
Semi major axis: 6937 km
RCS: Unknown
Launch date: July 10, 2023
Source: United States (US)
Launch site: AIR FORCE EASTERN TEST RANGE (AFETR)
Your satellite tracking list
Your tracking list is empty




NASA's NSSDC Master Catalog

Two Line Element Set (TLE):
1 57296U 23096G   23273.34263998  .00006103  00000-0  46626-3 0  9997
2 57296  42.9999  26.6635 0001234 282.9557  77.1147 15.02553134 12435
Source of the keplerian elements: AFSPC